[[{"header":{"parameterUnit":"m.s-1","parameterCategory":2,"la1":30.2992,"la2":30.254,"lo1":-89.0895,"lo2":-89.0443,"dy":0.0025,"dx":0.0025,"nx":19,"ny":19,"refTime":"2026-05-10T09:00:00:Z","depth":"0","parameterNumber":2,"parameterNumberName":"U-component_of_CURRENTS"},"data":[0,0,0,-0.0692,-0.0691,-0.0642,-0.0642,-0.0589,-0.0589,0,0,0,0,0,0,0,0,0,0,0,-0.0718,-0.0718,-0.0692,-0.069,-0.0642,-0.0642,-0.0589,-0.0589,0,0,0,0,0,0,0,0,0,0,0,-0.0719,-0.0718,-0.0718,-0.069,-0.0642,-0.0642,-0.0589,-0.0626,0,0,0,0,0,0,0,0,0,0,-0.0672,-0.0713,-0.0718,-0.0718,-0.069,-0.0642,-0.0642,-0.0627,-0.0623,-0.0611,0,-0.0604,0,-0.0586,-0.0584,-0.0584,0,0,0,-0.0698,-0.0717,-0.0679,-0.0718,-0.0689,-0.0643,-0.0666,-0.0625,-0.062,-0.0605,-0.0603,-0.06,-0.0585,-0.0584,-0.0584,-0.0566,-0.0566,0,0,-0.0701,-0.0733,-0.0682,-0.0676,-0.0677,-0.0668,-0.0665,-0.0622,-0.0632,-0.0603,-0.0599,-0.0585,-0.0584,-0.0583,-0.0566,-0.0566,0,0,0,-0.0703,-0.0735,-0.0699,-0.0679,-0.0665,-0.0666,-0.0663,-0.0635,-0.0616,-0.0598,-0.0584,-0.0583,-0.0583,-0.0565,-0.0566,-0.061,0,0,0,-0.0705,-0.0734,-0.07,-0.0722,-0.0666,-0.0653,-0.0677,-0.0619,-0.0613,-0.0584,-0.0583,-0.0582,-0.0565,-0.0566,-0.0609,-0.0622,0,0,0,-0.0721,-0.0737,-0.0726,-0.0723,-0.0694,-0.0653,-0.0633,-0.0618,-0.0604,-0.0584,-0.0582,-0.0565,-0.0565,-0.0607,-0.062,-0.061,0,0,0,-0.0761,-0.0768,-0.0727,-0.0735,-0.0694,-0.0675,-0.0633,-0.0626,-0.0615,-0.0583,-0.0565,-0.0566,-0.0606,-0.0618,-0.0608,-0.0594,-0.0598,0,0,-0.0792,-0.0773,-0.0775,-0.0736,-0.0732,-0.0682,-0.0685,-0.0651,-0.0618,-0.058,-0.0579,-0.0609,-0.062,-0.0609,-0.0631,-0.0634,0,0,0,-0.0799,-0.0799,-0.0793,-0.0778,-0.0747,-0.0724,-0.0685,-0.0665,-0.0638,-0.0611,-0.0609,-0.0614,-0.0606,-0.0596,-0.0598,-0.0618,-0.0569,-0.0569,-0.0568,-0.0897,-0.0856,-0.0861,-0.0811,-0.0799,-0.0755,-0.0739,-0.0701,-0.0668,-0.0666,-0.0652,-0.0675,-0.0666,-0.0667,-0.0688,-0.0655,-0.0655,-0.0655,-0.0655,-0.0942,-0.0937,-0.0894,-0.0878,-0.0839,-0.0829,-0.0775,-0.0751,-0.0714,-0.0693,-0.0683,-0.0645,-0.0673,-0.0694,-0.0658,-0.0658,-0.0657,-0.0657,-0.0657,-0.1003,-0.0989,-0.0966,-0.0931,-0.0909,-0.086,-0.0829,-0.0792,-0.0751,-0.0746,-0.0699,-0.0697,-0.0712,-0.073,-0.073,-0.073,-0.073,-0.073,-0.073,-0.107,-0.1039,-0.1023,-0.098,-0.0957,-0.092,-0.0856,-0.0826,-0.0771,-0.0739,-0.0738,-0.0727,-0.0697,-0.069,-0.073,-0.073,-0.073,-0.073,-0.073,-0.1124,-0.1099,-0.1075,-0.105,-0.0985,-0.0938,-0.0891,-0.0816,-0.078,-0.0753,-0.075,-0.0726,-0.0701,-0.0698,-0.069,-0.0729,-0.0729,-0.0729,-0.0729,-0.1162,-0.1147,-0.1101,-0.1058,-0.101,-0.0941,-0.0871,-0.0803,-0.0759,-0.0749,-0.0762,-0.0758,-0.0758,-0.0736,-0.0732,-0.0725,-0.0771,-0.0771,-0.0771,-0.1186,-0.1164,-0.1137,-0.1074,-0.1009,-0.0935,-0.0853,-0.0795,-0.0766,-0.0776,-0.0796,-0.0794,-0.0792,-0.0788,-0.0755,-0.0748,-0.0735,0,0]},{"header":{"parameterUnit":"m.s-1","parameterCategory":2,"la1":30.2992,"la2":30.254,"lo1":-89.0895,"lo2":-89.0443,"dy":0.0025,"dx":0.0025,"nx":19,"ny":19,"refTime":"2026-05-10T09:00:00:Z","depth":"0","parameterNumber":3,"parameterNumberName":"V-component_of_CURRENTS"},"data":[0,0,0,-0.131,-0.1308,-0.1215,-0.1215,-0.1175,-0.1175,0,0,0,0,0,0,0,0,0,0,0,-0.1354,-0.1354,-0.131,-0.1307,-0.1215,-0.1215,-0.1175,-0.1175,0,0,0,0,0,0,0,0,0,0,0,-0.1354,-0.1354,-0.1353,-0.1307,-0.1215,-0.1215,-0.1175,-0.1226,0,0,0,0,0,0,0,0,0,0,-0.1306,-0.1324,-0.1354,-0.1353,-0.1306,-0.1215,-0.1215,-0.1227,-0.1223,-0.1238,0,-0.1228,0,-0.1195,-0.1173,-0.1173,0,0,0,-0.131,-0.1327,-0.1311,-0.1353,-0.1306,-0.1216,-0.1258,-0.1224,-0.1219,-0.1232,-0.1227,-0.1224,-0.1194,-0.1173,-0.1173,-0.1154,-0.1154,0,0,-0.1315,-0.1328,-0.1315,-0.1308,-0.1288,-0.126,-0.1255,-0.122,-0.1214,-0.1226,-0.1222,-0.1194,-0.1173,-0.1173,-0.1154,-0.1154,0,0,0,-0.1328,-0.1332,-0.1315,-0.1311,-0.1285,-0.1258,-0.1251,-0.1216,-0.1213,-0.1222,-0.1193,-0.1173,-0.1173,-0.1155,-0.1154,-0.1137,0,0,0,-0.1331,-0.1339,-0.1318,-0.1323,-0.1285,-0.1234,-0.1248,-0.1215,-0.1209,-0.1193,-0.1173,-0.1173,-0.1155,-0.1154,-0.1138,-0.1117,0,0,0,-0.1357,-0.1341,-0.1335,-0.1325,-0.1283,-0.1234,-0.1228,-0.1213,-0.1193,-0.1173,-0.1173,-0.1155,-0.1155,-0.1138,-0.1118,-0.1106,0,0,0,-0.1369,-0.1347,-0.1335,-0.1301,-0.1284,-0.1233,-0.1227,-0.1191,-0.1175,-0.1173,-0.1155,-0.1154,-0.1138,-0.1119,-0.1107,-0.1132,-0.1129,0,0,-0.1347,-0.1345,-0.1325,-0.1311,-0.126,-0.1245,-0.1198,-0.1179,-0.1179,-0.1172,-0.1171,-0.1137,-0.1118,-0.1106,-0.1121,-0.1119,0,0,0,-0.1321,-0.1306,-0.129,-0.1255,-0.1226,-0.1192,-0.1169,-0.1165,-0.115,-0.1166,-0.1139,-0.1127,-0.112,-0.1137,-0.1135,-0.1152,-0.1154,-0.1154,-0.1154,-0.1293,-0.1278,-0.124,-0.1216,-0.1191,-0.1157,-0.1138,-0.113,-0.1139,-0.1133,-0.1114,-0.1092,-0.1111,-0.111,-0.1127,-0.1123,-0.1123,-0.1123,-0.1123,-0.1249,-0.1223,-0.1208,-0.117,-0.115,-0.112,-0.1101,-0.1103,-0.1084,-0.1098,-0.1092,-0.1119,-0.1107,-0.1126,-0.1122,-0.1122,-0.1122,-0.1122,-0.1122,-0.1224,-0.1211,-0.1193,-0.1151,-0.1116,-0.1094,-0.1071,-0.106,-0.106,-0.1049,-0.1072,-0.1073,-0.1088,-0.1049,-0.1049,-0.1049,-0.1049,-0.1049,-0.1048,-0.1207,-0.1189,-0.1168,-0.1129,-0.1109,-0.108,-0.1049,-0.1042,-0.1037,-0.1044,-0.1045,-0.1084,-0.107,-0.1071,-0.1046,-0.1047,-0.1047,-0.1047,-0.1047,-0.117,-0.1177,-0.115,-0.1132,-0.1092,-0.1082,-0.1053,-0.1044,-0.1029,-0.1033,-0.107,-0.1048,-0.1054,-0.1056,-0.1056,-0.103,-0.103,-0.103,-0.103,-0.1156,-0.1153,-0.1137,-0.1119,-0.1094,-0.1081,-0.1093,-0.1096,-0.1086,-0.1094,-0.1071,-0.1102,-0.1102,-0.1111,-0.1112,-0.1115,-0.1103,-0.1103,-0.1103,-0.1135,-0.114,-0.113,-0.1121,-0.1095,-0.1096,-0.113,-0.1174,-0.1158,-0.1107,-0.1087,-0.1084,-0.1129,-0.1128,-0.1146,-0.1146,-0.1151,0,0]}],[{"header":{"parameterUnit":"m.s-1","parameterCategory":2,"la1":30.2992,"la2":30.254,"lo1":-89.0895,"lo2":-89.0443,"dy":0.0025,"dx":0.0025,"nx":19,"ny":19,"refTime":"2026-05-10T09:00:00:Z","depth":"2","parameterNumber":2,"parameterNumberName":"U-component_of_CURRENTS"},"data":[0,0,0,0.0083,0.0083,0.0086,0.0086,0.0096,0.0096,0,0,0,0,0,0,0,0,0,0,0,0.008,0.008,0.0083,0.0083,0.0086,0.0086,0.0096,0.0096,0,0,0,0,0,0,0,0,0,0,0,0.008,0.008,0.008,0.0083,0.0086,0.0086,0.0096,0.0093,0,0,0,0,0,0,0,0,0,0,0.0089,0.0083,0.008,0.008,0.0083,0.0086,0.0086,0.0092,0.0093,0.0096,0,0.0095,0,0.0096,0.0097,0.0097,0,0,0,0.0084,0.0082,0.0086,0.008,0.0083,0.0086,0.0085,0.0093,0.0093,0.0097,0.0095,0.0095,0.0096,0.0097,0.0097,0.0091,0.0091,0,0,0.0084,0.0079,0.0085,0.0086,0.0081,0.0085,0.0085,0.0093,0.0091,0.0095,0.0095,0.0097,0.0097,0.0097,0.0091,0.0091,0,0,0,0.0083,0.0079,0.0082,0.0086,0.0086,0.0085,0.0085,0.0091,0.0092,0.0096,0.0097,0.0097,0.0097,0.0091,0.0091,0.0063,0,0,0,0.0083,0.0079,0.0082,0.0079,0.0086,0.0087,0.0083,0.0092,0.0093,0.0097,0.0097,0.0098,0.0092,0.0091,0.0064,0.0045,0,0,0,0.0081,0.0078,0.0079,0.0079,0.0081,0.0087,0.0089,0.0092,0.0093,0.0097,0.0098,0.0092,0.0091,0.0065,0.0047,0.005,0,0,0,0.0077,0.0065,0.0078,0.0066,0.0081,0.0076,0.0089,0.0084,0.0085,0.0097,0.0092,0.0091,0.0065,0.0049,0.0051,0.0037,0.0032,0,0,0.0058,0.0062,0.0055,0.0067,0.0054,0.0076,0.0063,0.0069,0.0082,0.009,0.009,0.0064,0.0048,0.005,0.0017,0.0012,0,0,0,0.0047,0.0039,0.0039,0.0035,0.0041,0.0043,0.0054,0.0061,0.0063,0.0081,0.0064,0.0055,0.0058,0.0052,0.0048,0.0089,0.009,0.009,0.009,0.0002,0.0011,-0.0002,0.0007,0.0006,0.0017,0.002,0.0031,0.0046,0.0043,0.0033,0.0015,0.0007,0.0004,0.0037,0.0037,0.0037,0.0037,0.0037,-0.0035,-0.0045,-0.0032,-0.0046,-0.0036,-0.0045,-0.002,-0.0009,-0.0002,0.001,0.0015,0.0022,-0.0001,0.0035,0.0035,0.0036,0.0036,0.0036,0.0036,-0.0072,-0.0074,-0.008,-0.009,-0.0098,-0.0084,-0.008,-0.0061,-0.0035,-0.0035,-0.0025,-0.0025,0.0002,-0.0028,-0.0029,-0.0029,-0.0029,-0.0029,-0.0029,-0.0112,-0.0111,-0.0126,-0.0131,-0.0136,-0.0136,-0.0116,-0.0101,-0.0079,-0.0061,-0.0061,-0.0007,-0.0005,-0.0001,-0.003,-0.003,-0.003,-0.0029,-0.0029,-0.016,-0.0155,-0.017,-0.0176,-0.0169,-0.0171,-0.0149,-0.0138,-0.0116,-0.0109,-0.0065,-0.0064,-0.0053,-0.005,-0.0048,-0.0087,-0.0087,-0.0087,-0.0087,-0.0192,-0.0189,-0.0199,-0.0194,-0.0183,-0.018,-0.0235,-0.0292,-0.0241,-0.0224,-0.0219,-0.0221,-0.0214,-0.0213,-0.0206,-0.0206,-0.0287,-0.0287,-0.0288,-0.022,-0.0213,-0.0224,-0.0206,-0.0184,-0.0193,-0.0315,-0.0453,-0.0377,-0.03,-0.03,-0.0091,-0.0077,-0.0074,-0.0055,-0.005,-0.0044,0,0]},{"header":{"parameterUnit":"m.s-1","parameterCategory":2,"la1":30.2992,"la2":30.254,"lo1":-89.0895,"lo2":-89.0443,"dy":0.0025,"dx":0.0025,"nx":19,"ny":19,"refTime":"2026-05-10T09:00:00:Z","depth":"2","parameterNumber":3,"parameterNumberName":"V-component_of_CURRENTS"},"data":[0,0,0,-0.009,-0.0091,-0.014,-0.014,-0.0106,-0.0106,0,0,0,0,0,0,0,0,0,0,0,-0.0079,-0.008,-0.009,-0.0092,-0.014,-0.014,-0.0106,-0.0106,0,0,0,0,0,0,0,0,0,0,0,-0.0079,-0.008,-0.0081,-0.0092,-0.014,-0.014,-0.0106,-0.009,0,0,0,0,0,0,0,0,0,0,-0.0053,-0.007,-0.008,-0.0081,-0.0092,-0.014,-0.014,-0.009,-0.0091,-0.0061,0,-0.0089,0,-0.0099,-0.0102,-0.0102,0,0,0,-0.0077,-0.007,-0.0077,-0.0081,-0.0093,-0.014,-0.0114,-0.0091,-0.0092,-0.0062,-0.0089,-0.0088,-0.0098,-0.0102,-0.0102,-0.0079,-0.008,0,0,-0.0074,-0.0085,-0.0077,-0.0079,-0.013,-0.0113,-0.0116,-0.0093,-0.0105,-0.0089,-0.0088,-0.0098,-0.0102,-0.0102,-0.0079,-0.0079,0,0,0,-0.0076,-0.0084,-0.0094,-0.008,-0.0098,-0.0114,-0.0118,-0.0106,-0.0109,-0.0088,-0.0097,-0.0102,-0.0101,-0.0079,-0.0079,-0.0114,0,0,0,-0.0074,-0.0086,-0.0093,-0.0099,-0.0099,-0.0118,-0.0132,-0.0111,-0.0109,-0.0097,-0.0102,-0.0101,-0.0079,-0.0079,-0.0113,-0.0124,0,0,0,-0.0073,-0.0085,-0.0098,-0.01,-0.0126,-0.0119,-0.012,-0.0111,-0.0114,-0.0102,-0.01,-0.0079,-0.0079,-0.0112,-0.0122,-0.0137,0,0,0,-0.007,-0.0095,-0.0099,-0.0125,-0.0126,-0.0124,-0.0121,-0.0123,-0.0115,-0.0101,-0.0079,-0.0079,-0.0112,-0.0121,-0.0136,-0.0058,-0.0057,0,0,-0.009,-0.0098,-0.0108,-0.0112,-0.0121,-0.0115,-0.0117,-0.0115,-0.0107,-0.0077,-0.0077,-0.0114,-0.0122,-0.0137,-0.0072,-0.007,0,0,0,-0.0106,-0.0121,-0.0121,-0.0137,-0.0128,-0.0131,-0.0123,-0.0118,-0.0122,-0.0108,-0.0109,-0.0113,-0.0121,-0.0071,-0.007,-0.0081,-0.008,-0.008,-0.008,-0.015,-0.014,-0.0155,-0.0149,-0.0148,-0.0139,-0.0137,-0.0131,-0.0118,-0.0133,-0.0138,-0.0167,-0.0115,-0.0113,-0.0136,-0.0136,-0.0136,-0.0136,-0.0136,-0.0178,-0.0185,-0.0182,-0.0198,-0.019,-0.0193,-0.0165,-0.0166,-0.0165,-0.0156,-0.0163,-0.0106,-0.0114,-0.0139,-0.0138,-0.0138,-0.0138,-0.0138,-0.0137,-0.0202,-0.0202,-0.0223,-0.0239,-0.0253,-0.0238,-0.0231,-0.0218,-0.0205,-0.021,-0.0157,-0.0155,-0.0189,-0.0224,-0.0224,-0.0224,-0.0224,-0.0224,-0.0225,-0.0217,-0.0229,-0.0256,-0.0275,-0.0288,-0.0295,-0.0276,-0.0256,-0.0213,-0.0183,-0.0182,-0.0197,-0.0194,-0.0193,-0.0226,-0.0226,-0.0226,-0.0226,-0.0226,-0.0243,-0.0251,-0.0278,-0.0298,-0.0307,-0.0291,-0.0276,-0.0205,-0.0196,-0.0152,-0.0157,-0.0158,-0.0137,-0.0136,-0.0133,-0.0149,-0.0149,-0.0149,-0.0149,-0.0258,-0.0262,-0.0292,-0.0299,-0.0293,-0.0278,-0.0208,-0.0066,0.0003,0.0084,0.0075,0.0125,0.0116,0.0154,0.0148,0.0158,0.0218,0.0219,0.0219,-0.0277,-0.028,-0.0298,-0.0297,-0.0278,-0.0253,-0.0167,0.0104,0.0351,0.0237,0.0175,-0.0132,-0.0084,-0.0088,-0.0049,-0.0051,-0.0043,0,0]}],[{"header":{"parameterUnit":"m.s-1","parameterCategory":2,"la1":30.2992,"la2":30.254,"lo1":-89.0895,"lo2":-89.0443,"dy":0.0025,"dx":0.0025,"nx":19,"ny":19,"refTime":"2026-05-10T09:00:00:Z","depth":"4","parameterNumber":2,"parameterNumberName":"U-component_of_CURRENTS"},"data":[0,0,0,-0.0453,-0.0456,-0.0711,-0.0713,-0.1069,-0.1071,0,0,0,0,0,0,0,0,0,0,0,-0.039,-0.0391,-0.0452,-0.0456,-0.0711,-0.0713,-0.1068,-0.1071,0,0,0,0,0,0,0,0,0,0,0,-0.039,-0.0391,-0.0392,-0.0457,-0.0711,-0.0713,-0.1068,-0.0882,0,0,0,0,0,0,0,0,0,0,-0.0637,-0.0581,-0.0391,-0.0392,-0.0458,-0.071,-0.0713,-0.0874,-0.0894,-0.0943,0,-0.0965,0,-0.099,-0.109,-0.1091,0,0,0,-0.0516,-0.0565,-0.059,-0.0393,-0.0459,-0.0709,-0.0613,-0.0885,-0.0908,-0.0969,-0.097,-0.0983,-0.0996,-0.1092,-0.1093,-0.1281,-0.1281,0,0,-0.0502,-0.0489,-0.0573,-0.0603,-0.0504,-0.0604,-0.062,-0.0899,-0.094,-0.0971,-0.0991,-0.1001,-0.1094,-0.1096,-0.1281,-0.1281,0,0,0,-0.0421,-0.0479,-0.05,-0.0589,-0.0613,-0.061,-0.0629,-0.093,-0.0923,-0.0994,-0.1006,-0.1096,-0.1099,-0.1281,-0.1281,-0.1157,0,0,0,-0.0416,-0.0426,-0.0492,-0.0495,-0.0606,-0.0775,-0.0653,-0.0906,-0.0936,-0.1004,-0.1096,-0.1102,-0.1281,-0.1281,-0.116,-0.1108,0,0,0,-0.0382,-0.0424,-0.0436,-0.0492,-0.0567,-0.077,-0.0786,-0.0914,-0.094,-0.1091,-0.1103,-0.1281,-0.1281,-0.1163,-0.1114,-0.104,0,0,0,-0.0385,-0.0424,-0.0437,-0.0485,-0.0563,-0.071,-0.0784,-0.0952,-0.1083,-0.1097,-0.1281,-0.1281,-0.1164,-0.1117,-0.1045,-0.0949,0,0,0,-0.0426,-0.043,-0.0449,-0.0464,-0.0545,-0.0681,-0.0823,-0.1022,-0.1087,-0.1202,-0.1208,-0.1159,-0.1114,-0.1041,-0.0942,0,0,0,0,-0.0455,-0.0463,-0.0491,-0.0542,-0.0645,-0.0766,-0.0966,-0.101,-0.1106,-0.1148,-0.1191,-0.1167,-0.1124,-0.1083,-0.128,-0.128,-0.128,-0.128,-0.128,-0.0469,-0.049,-0.0538,-0.0592,-0.0699,-0.0867,-0.0939,-0.1037,-0.1119,-0.111,-0.1089,-0.0982,-0.0937,-0.1117,-0.1116,-0.1116,-0.1115,-0.1115,-0.1115,-0.0473,-0.0479,-0.0548,-0.0606,-0.0714,-0.0851,-0.0941,-0.0969,-0.0954,-0.102,-0.0983,-0.0986,-0.1103,-0.1106,-0.1107,-0.1109,-0.111,-0.111,-0.1111,-0.0439,-0.0453,-0.0499,-0.0584,-0.0682,-0.0804,-0.0775,-0.0834,-0.0841,-0.0793,-0.0749,-0.09,-0.0882,-0.0761,-0.076,-0.076,-0.0759,-0.0759,-0.0758,-0.0386,-0.0435,-0.0458,-0.0552,-0.058,-0.0615,-0.0662,-0.0601,-0.0629,-0.0604,-0.0745,-0.0863,-0.0875,-0.0864,-0.075,-0.0751,-0.0752,-0.0753,-0.0754,-0.0317,-0.0365,-0.0366,-0.0388,-0.0408,-0.0433,-0.0472,-0.0405,-0.032,-0.0266,-0.051,-0.0524,-0.0558,-0.0577,-0.0558,-0.0348,-0.0346,-0.0344,0,-0.0261,-0.0287,-0.0271,-0.0245,-0.0211,-0.03,-0.0169,-0.0142,-0.0211,-0.0258,-0.0292,-0.0572,-0.0583,-0.0629,-0.0643,-0.0623,0,0,0,-0.0195,-0.0207,-0.016,-0.0167,-0.0134,-0.0111,-0.014,-0.0126,-0.0247,-0.011,-0.0301,-0.0312,-0.0465,-0.0724,-0.0811,-0.0825,-0.0812,0,0]},{"header":{"parameterUnit":"m.s-1","parameterCategory":2,"la1":30.2992,"la2":30.254,"lo1":-89.0895,"lo2":-89.0443,"dy":0.0025,"dx":0.0025,"nx":19,"ny":19,"refTime":"2026-05-10T09:00:00:Z","depth":"4","parameterNumber":3,"parameterNumberName":"V-component_of_CURRENTS"},"data":[0,0,0,-0.0118,-0.0118,-0.0062,-0.0061,0.0091,0.0093,0,0,0,0,0,0,0,0,0,0,0,-0.0114,-0.0114,-0.0118,-0.0118,-0.0062,-0.0061,0.0091,0.0093,0,0,0,0,0,0,0,0,0,0,0,-0.0114,-0.0114,-0.0114,-0.0118,-0.0062,-0.0061,0.0091,0.0037,0,0,0,0,0,0,0,0,0,0,-0.0024,-0.0034,-0.0114,-0.0114,-0.0118,-0.0063,-0.0061,0.0034,0.004,0.0078,0,0.008,0,0.0066,0.0101,0.0102,0,0,0,-0.0083,-0.004,-0.0046,-0.0114,-0.0118,-0.0063,-0.0078,0.0037,0.0044,0.0087,0.0081,0.0086,0.0068,0.0102,0.0103,0.0176,0.0176,0,0,-0.0086,-0.0078,-0.0051,-0.0042,-0.0111,-0.008,-0.0076,0.0041,0.006,0.0082,0.0089,0.0071,0.0103,0.0104,0.0176,0.0176,0,0,0,-0.0119,-0.008,-0.0089,-0.0046,-0.0056,-0.0079,-0.0075,0.0056,0.0046,0.009,0.0072,0.0104,0.0106,0.0176,0.0176,0.013,0,0,0,-0.0119,-0.0103,-0.0091,-0.0081,-0.006,-0.001,-0.0063,0.0039,0.005,0.0072,0.0104,0.0107,0.0176,0.0176,0.0132,0.0118,0,0,0,-0.0115,-0.0102,-0.0103,-0.0082,-0.0079,-0.0013,-0.0013,0.0042,0.0038,0.0102,0.0107,0.0177,0.0176,0.0134,0.012,0.013,0,0,0,-0.0098,-0.0114,-0.0102,-0.0132,-0.008,-0.0121,-0.0014,0.0023,0.0073,0.0105,0.0176,0.0176,0.0134,0.0122,0.0131,0.0095,0,0,0,-0.0119,-0.0115,-0.0143,-0.0133,-0.021,-0.0126,-0.0149,-0.0006,0.008,0.0151,0.0152,0.0132,0.012,0.013,0.0068,0,0,0,0,-0.0153,-0.0166,-0.0192,-0.0224,-0.0249,-0.0225,-0.0125,-0.0057,0.0074,0.0098,0.0135,0.013,0.0137,0.0119,0.0174,0.0174,0.0174,0.0174,0.0174,-0.0127,-0.0181,-0.0241,-0.0297,-0.0312,-0.0268,-0.0218,-0.0096,-0.0007,0.0061,0.0094,0.0074,0.0051,0.0095,0.0095,0.0095,0.0094,0.0094,0.0094,-0.0174,-0.0222,-0.0268,-0.0331,-0.0338,-0.0316,-0.0238,-0.0142,-0.0027,0.0046,0.0056,0.0074,0.009,0.0091,0.0091,0.0092,0.0092,0.0092,0.0093,-0.0167,-0.0207,-0.0229,-0.031,-0.0313,-0.0287,-0.0258,-0.0153,-0.0039,-0.0026,0.0017,0.0056,0.0059,0.0019,0.0019,0.0019,0.0019,0.0019,0.0019,-0.015,-0.0197,-0.0228,-0.0292,-0.0302,-0.028,-0.0225,-0.0201,-0.0103,-0.0031,0.0003,0.0049,0.0052,0.0056,0.0018,0.0018,0.0018,0.0018,0.0018,-0.0185,-0.0172,-0.0225,-0.0249,-0.0308,-0.0311,-0.0285,-0.0233,-0.0196,-0.0157,-0.004,-0.0037,-0.0015,-0.0011,-0.0008,-0.0066,-0.0067,-0.0067,0,-0.0179,-0.0192,-0.023,-0.0275,-0.0323,-0.0335,-0.0323,-0.0306,-0.0197,-0.0137,-0.0196,-0.0063,-0.006,-0.0038,-0.0034,-0.0033,0,0,0,-0.0201,-0.0198,-0.0219,-0.0264,-0.0324,-0.0314,-0.0309,-0.0275,-0.0182,-0.0233,-0.0082,-0.0078,-0.0178,0.0016,0.0058,0.0061,0.0071,0,0]}]]